| time (UTC) | temp C | wind direction | speed KPH | gust KPH | rain 1hr cm | rain 24hr cm | rain mn cm | humidity % | barometer mb |
| 20260507044423 | -17 | 75 | 0.0 | 0.0 | 0.00 | 0.00 | 0.00 | 99 | 1006.2 |
| 20260507043923 | -17 | 137 | 0.0 | 0.0 | 0.00 | 0.00 | 0.00 | 99 | 1007.0 |
| 20260507043424 | -17 | 13 | 0.0 | 0.0 | 0.00 | 0.00 | 0.00 | 99 | 1006.2 |
| 20260507042923 | -17 | 183 | 0.0 | 0.0 | 0.00 | 0.00 | 0.00 | 99 | 1007.0 |
| 20260507042423 | -17 | 6 | 0.0 | 0.0 | 0.00 | 0.00 | 0.00 | 99 | 1006.2 |
| 20260507041923 | -17 | 101 | 0.0 | 0.0 | 0.00 | 0.00 | 0.00 | 99 | 1007.0 |
| 20260507041423 | -17 | 182 | 0.0 | 0.0 | 0.00 | 0.00 | 0.00 | 99 | 1006.2 |
| 20260507040923 | -17 | 76 | 0.0 | 0.0 | 0.00 | 0.00 | 0.00 | 99 | 1007.0 |
| 20260507040423 | -17 | 200 | 0.0 | 0.0 | 0.00 | 0.00 | 0.00 | 99 | 1006.2 |
| 20260507035923 | -17 | 70 | 0.0 | 0.0 | 0.00 | 0.00 | 0.00 | 99 | 1007.0 |
| 20260507035423 | -17 | 51 | 0.0 | 0.0 | 0.00 | 0.00 | 0.00 | 99 | 1006.2 |
| 20260507034923 | -17 | 38 | 0.0 | 0.0 | 0.00 | 0.00 | 0.00 | 99 | 1007.0 |
| 20260507034423 | -17 | 2 | 0.0 | 0.0 | 0.00 | 0.00 | 0.00 | 99 | 1006.2 |
| 20260507033923 | -17 | 47 | 0.0 | 0.0 | 0.00 | 0.00 | 0.00 | 99 | 1006.2 |
| 20260507033424 | -17 | 179 | 0.0 | 0.0 | 0.00 | 0.00 | 0.00 | 99 | 1006.2 |
| 20260507032923 | -17 | 153 | 0.0 | 0.0 | 0.00 | 0.00 | 0.00 | 99 | 1007.0 |
| 20260507032423 | -17 | 88 | 0.0 | 0.0 | 0.00 | 0.00 | 0.00 | 99 | 1006.2 |
| 20260507031923 | -17 | 81 | 0.0 | 3.2 | 0.00 | 0.00 | 0.00 | 99 | 1007.0 |
| 20260507031426 | -17 | 77 | 0.0 | 3.2 | 0.00 | 0.00 | 0.00 | 99 | 1007.0 |
| 20260507030923 | -17 | 83 | 0.0 | 0.0 | 0.00 | 0.00 | 0.00 | 99 | 1007.0 |
| 20260507030423 | -17 | 51 | 0.0 | 0.0 | 0.00 | 0.00 | 0.00 | 99 | 1006.2 |
| 20260507025923 | -17 | 49 | 0.0 | 0.0 | 0.00 | 0.00 | 0.00 | 99 | 1007.0 |
| 20260507025423 | -17 | 55 | 0.0 | 0.0 | 0.00 | 0.00 | 0.00 | 99 | 1006.2 |
| 20260507024923 | -17 | 59 | 0.0 | 0.0 | 0.00 | 0.00 | 0.00 | 99 | 1007.0 |
| 20260507024423 | -17 | 170 | 0.0 | 0.0 | 0.00 | 0.00 | 0.00 | 99 | 1006.2 |
| 20260507023923 | -17 | 73 | 0.0 | 0.0 | 0.00 | 0.00 | 0.00 | 99 | 1007.0 |
| 20260507023424 | -17 | 67 | 0.0 | 0.0 | 0.00 | 0.00 | 0.00 | 99 | 1006.2 |
| 20260507022923 | -17 | 135 | 0.0 | 0.0 | 0.00 | 0.00 | 0.00 | 99 | 1007.0 |
| 20260507022423 | -17 | 68 | 0.0 | 0.0 | 0.00 | 0.00 | 0.00 | 99 | 1006.2 |
| 20260507021923 | 9 | 47 | 0.0 | 0.0 | 0.00 | 0.00 | 0.00 | 99 | 1007.0 |
| 20260507021423 | 9 | 49 | 0.0 | 0.0 | 0.00 | 0.00 | 0.00 | 99 | 1007.0 |
| 20260507020923 | -17 | 87 | 0.0 | 0.0 | 0.00 | 0.00 | 0.00 | 99 | 1007.0 |
| 20260507020423 | -17 | 53 | 0.0 | 0.0 | 0.00 | 0.00 | 0.00 | 99 | 1007.0 |
| 20260507015923 | -17 | 98 | 0.0 | 0.0 | 0.00 | 0.00 | 0.00 | 99 | 1007.0 |
| 20260507015423 | -17 | 45 | 0.0 | 0.0 | 0.00 | 0.00 | 0.00 | 99 | 1007.0 |
| 20260507014923 | -17 | 176 | 0.0 | 0.0 | 0.00 | 0.00 | 0.00 | 99 | 1007.0 |
| 20260507014423 | -17 | 52 | 0.0 | 0.0 | 0.00 | 0.00 | 0.00 | 99 | 1006.2 |
| 20260507013923 | -17 | 46 | 0.0 | 0.0 | 0.00 | 0.00 | 0.00 | 99 | 1007.0 |
| 20260507013423 | -17 | 140 | 0.0 | 0.0 | 0.00 | 0.00 | 0.00 | 99 | 1006.2 |
| 20260507012923 | -17 | 35 | 0.0 | 0.0 | 0.00 | 0.00 | 0.00 | 99 | 1007.0 |
| 20260507012423 | -17 | 170 | 0.0 | 0.0 | 0.00 | 0.00 | 0.00 | 99 | 1006.2 |
| 20260507011923 | -17 | 82 | 0.0 | 0.0 | 0.00 | 0.00 | 0.00 | 99 | 1007.0 |
| 20260507011423 | -17 | 51 | 0.0 | 0.0 | 0.00 | 0.00 | 0.00 | 99 | 1007.0 |
| 20260507010923 | -17 | 80 | 0.0 | 0.0 | 0.00 | 0.00 | 0.00 | 99 | 1007.0 |
| 20260507010423 | -17 | 75 | 0.0 | 0.0 | 0.00 | 0.00 | 0.00 | 99 | 1007.0 |
| 20260507005923 | 9 | 72 | 0.0 | 0.0 | 0.00 | 0.00 | 0.00 | 99 | 1006.1 |
| 20260507005423 | 10 | 77 | 0.0 | 0.0 | 0.00 | 0.00 | 0.00 | 99 | 1006.1 |
| 20260507004923 | -17 | 62 | 0.0 | 0.0 | 0.00 | 0.00 | 0.00 | 99 | 1006.0 |
| 20260507004423 | 10 | 75 | 0.0 | 0.0 | 0.00 | 0.00 | 0.00 | 99 | 1006.0 |
| 20260507003923 | 10 | 79 | 0.0 | 0.0 | 0.00 | 0.00 | 0.00 | 99 | 1006.0 |
| 20260507003423 | 10 | 77 | 0.0 | 1.6 | 0.00 | 0.00 | 0.00 | 99 | 1006.0 |
| 20260507002923 | 10 | 80 | 0.0 | 1.6 | 0.00 | 0.00 | 0.00 | 99 | 1006.0 |
| 20260507002423 | 10 | 43 | 0.0 | 1.6 | 0.00 | 0.00 | 0.00 | 99 | 1006.0 |
| 20260507001923 | 9 | 73 | 0.0 | 16.1 | 0.00 | 0.00 | 0.00 | 99 | 1006.0 |
| 20260507001423 | 9 | 67 | 3.2 | 16.1 | 0.00 | 0.00 | 0.00 | 99 | 1006.0 |
| 20260507000923 | 9 | 48 | 1.6 | 12.9 | 0.00 | 0.00 | 0.00 | 99 | 1006.0 |
| 20260507000423 | 9 | 71 | 0.0 | 6.4 | 0.00 | 0.00 | 0.00 | 99 | 1006.0 |
| 20260506235923 | 9 | 81 | 0.0 | 0.0 | 0.00 | 0.00 | 0.00 | 99 | 1006.0 |
| 20260506235423 | 9 | 43 | 0.0 | 0.0 | 0.00 | 0.00 | 0.00 | 99 | 1006.0 |
| 20260506234923 | 9 | 89 | 0.0 | 4.8 | 0.00 | 0.00 | 0.00 | 99 | 1005.2 |
| 20260506234423 | 9 | 83 | 0.0 | 4.8 | 0.00 | 0.00 | 0.00 | 99 | 1006.0 |
| 20260506233923 | 9 | 48 | 0.0 | 4.8 | 0.00 | 0.00 | 0.00 | 99 | 1005.2 |
| 20260506233423 | 10 | 54 | 0.0 | 4.8 | 0.00 | 0.00 | 0.00 | 99 | 1005.2 |
| 20260506232423 | 10 | 51 | 0.0 | 8.0 | 0.00 | 0.00 | 0.00 | 99 | 1005.0 |
| 20260506231923 | 10 | 78 | 0.0 | 4.8 | 0.00 | 0.00 | 0.00 | 99 | 1005.0 |
| 20260506231423 | 10 | 53 | 0.0 | 4.8 | 0.00 | 0.00 | 0.00 | 99 | 1005.0 |
| 20260506230423 | -17 | 66 | 0.0 | 4.8 | 0.00 | 0.00 | 0.00 | 99 | 1005.0 |
| 20260506225923 | -17 | 75 | 0.0 | 6.4 | 0.00 | 0.00 | 0.00 | 99 | 1005.0 |
| 20260506225423 | -17 | 45 | 1.6 | 8.0 | 0.00 | 0.00 | 0.00 | 99 | 1005.0 |
| 20260506224923 | -17 | 63 | 3.2 | 8.0 | 0.00 | 0.00 | 0.00 | 99 | 1005.0 |
| 20260506224423 | -17 | 53 | 1.6 | 8.0 | 0.00 | 0.00 | 0.00 | 99 | 1005.0 |
| 20260506223923 | -17 | 48 | 0.0 | 8.0 | 0.00 | 0.00 | 0.00 | 99 | 1005.0 |
| 20260506223423 | -17 | 76 | 0.0 | 6.4 | 0.00 | 0.00 | 0.00 | 99 | 1005.0 |
| 20260506222923 | -17 | 44 | 0.0 | 4.8 | 0.00 | 0.00 | 0.00 | 99 | 1005.0 |
| 20260506222423 | -17 | 51 | 1.6 | 4.8 | 0.00 | 0.00 | 0.00 | 99 | 1005.0 |
| 20260506221923 | -17 | 46 | 0.0 | 8.0 | 0.00 | 0.00 | 0.00 | 99 | 1004.2 |
| 20260506221423 | -17 | 87 | 0.0 | 8.0 | 0.00 | 0.00 | 0.00 | 99 | 1004.1 |
| 20260506220923 | -17 | 37 | 1.6 | 6.4 | 0.00 | 0.00 | 0.00 | 99 | 1004.1 |
| 20260506220423 | 16 | 85 | 1.6 | 8.0 | 0.00 | 0.00 | 0.00 | 99 | 1004.0 |
| 20260506215923 | -17 | 128 | 3.2 | 8.0 | 0.00 | 0.00 | 0.00 | 99 | 1004.0 |
| 20260506215423 | -17 | 102 | 0.0 | 3.2 | 0.00 | 0.00 | 0.00 | 99 | 1004.0 |
| 20260506214923 | -17 | 210 | 0.0 | 0.0 | 0.00 | 0.00 | 0.00 | 99 | 1004.0 |
| 20260506214423 | -17 | 223 | 0.0 | 3.2 | 0.00 | 0.00 | 0.00 | 99 | 1003.2 |
| 20260506213923 | -17 | 223 | 0.0 | 3.2 | 0.00 | 0.00 | 0.00 | 99 | 1004.0 |
| 20260506213423 | 17 | 227 | 0.0 | 1.6 | 0.00 | 0.00 | 0.00 | 99 | 1003.2 |
| 20260506212923 | -17 | 190 | 0.0 | 0.0 | 0.00 | 0.00 | 0.00 | 99 | 1003.2 |
| 20260506212423 | 17 | 207 | 0.0 | 0.0 | 0.00 | 0.00 | 0.00 | 99 | 1003.2 |
| 20260506211923 | 17 | 218 | 0.0 | 3.2 | 0.00 | 0.00 | 0.00 | 99 | 1004.0 |
| 20260506211423 | 17 | 235 | 0.0 | 3.2 | 0.00 | 0.00 | 0.00 | 99 | 1004.0 |
| 20260506210923 | 17 | 213 | 0.0 | 3.2 | 0.00 | 0.00 | 0.00 | 99 | 1003.2 |
| 20260506210423 | 17 | 225 | 0.0 | 0.0 | 0.00 | 0.00 | 0.00 | 99 | 1003.2 |
| 20260506205923 | 17 | 227 | 0.0 | 0.0 | 0.00 | 0.00 | 0.00 | 99 | 1003.1 |
| 20260506205423 | 17 | 231 | 0.0 | 0.0 | 0.00 | 0.00 | 0.00 | 99 | 1003.0 |
| 20260506204923 | 17 | 231 | 0.0 | 1.6 | 0.00 | 0.00 | 0.00 | 99 | 1003.0 |
| 20260506204423 | 17 | 235 | 0.0 | 4.8 | 0.00 | 0.00 | 0.00 | 99 | 1003.0 |
| 20260506203423 | 17 | 228 | 1.6 | 8.0 | 0.00 | 0.00 | 0.00 | 99 | 1003.1 |
| 20260506202923 | 17 | 235 | 1.6 | 8.0 | 0.00 | 0.00 | 0.00 | 99 | 1003.2 |
| 20260506202423 | 17 | 240 | 0.0 | 4.8 | 0.00 | 0.00 | 0.00 | 99 | 1003.2 |
| 20260506201923 | 17 | 183 | 0.0 | 4.8 | 0.00 | 0.00 | 0.00 | 99 | 1003.0 |
| 20260506201423 | 17 | 222 | 0.0 | 0.0 | 0.00 | 0.00 | 0.00 | 99 | 1003.1 |
| 20260506200923 | 17 | 210 | 0.0 | 0.0 | 0.00 | 0.00 | 0.00 | 99 | 1003.1 |
| 20260506200423 | 17 | 213 | 0.0 | 0.0 | 0.00 | 0.00 | 0.00 | 99 | 1003.2 |
| 20260506195923 | 17 | 215 | 0.0 | 0.0 | 0.00 | 0.00 | 0.00 | 99 | 1003.2 |
| 20260506195423 | 17 | 185 | 0.0 | 0.0 | 0.00 | 0.00 | 0.00 | 99 | 1003.2 |
| 20260506194923 | 17 | 235 | 0.0 | 1.6 | 0.00 | 0.00 | 0.00 | 99 | 1004.0 |
| 20260506194423 | 17 | 231 | 0.0 | 4.8 | 0.00 | 0.00 | 0.00 | 99 | 1004.0 |
| 20260506193923 | 17 | 230 | 1.6 | 4.8 | 0.00 | 0.00 | 0.00 | 99 | 1004.0 |
| 20260506193423 | 17 | 230 | 1.6 | 4.8 | 0.00 | 0.00 | 0.00 | 99 | 1003.2 |
| 20260506192923 | 17 | 237 | 1.6 | 3.2 | 0.00 | 0.00 | 0.00 | 99 | 1003.2 |
| 20260506192423 | 17 | 205 | 1.6 | 3.2 | 0.00 | 0.00 | 0.00 | 99 | 1004.0 |
| 20260506191923 | 17 | 233 | 1.6 | 3.2 | 0.00 | 0.00 | 0.00 | 99 | 1003.2 |
| 20260506191423 | 17 | 236 | 0.0 | 3.2 | 0.00 | 0.00 | 0.00 | 99 | 1004.0 |
| 20260506190923 | 17 | 222 | 0.0 | 3.2 | 0.00 | 0.00 | 0.00 | 99 | 1004.0 |
| 20260506190423 | 17 | 226 | 0.0 | 9.7 | 0.00 | 0.00 | 0.00 | 99 | 1004.0 |
| 20260506185923 | 17 | 183 | 3.2 | 9.7 | 0.00 | 0.00 | 0.00 | 99 | 1003.2 |
| 20260506185423 | -17 | 181 | 1.6 | 4.8 | 0.00 | 0.00 | 0.00 | 99 | 1004.0 |
| 20260506184923 | -17 | 225 | 1.6 | 4.8 | 0.00 | 0.00 | 0.00 | 99 | 1004.0 |
| 20260506184423 | -17 | 211 | 0.0 | 4.8 | 0.00 | 0.00 | 0.00 | 99 | 1004.0 |
| 20260506183923 | -17 | 230 | 1.6 | 4.8 | 0.00 | 0.00 | 0.00 | 99 | 1004.0 |
| 20260506183423 | -17 | 214 | 1.6 | 6.4 | 0.00 | 0.00 | 0.00 | 99 | 1004.0 |
| 20260506182923 | -17 | 226 | 3.2 | 6.4 | 0.00 | 0.00 | 0.00 | 99 | 1004.0 |
| 20260506182423 | -17 | 231 | 3.2 | 6.4 | 0.00 | 0.00 | 0.00 | 99 | 1004.0 |
| 20260506181923 | -17 | 240 | 1.6 | 8.0 | 0.00 | 0.00 | 0.00 | 99 | 1004.0 |
| 20260506181423 | -17 | 207 | 3.2 | 8.0 | 0.00 | 0.00 | 0.00 | 99 | 1004.0 |
| 20260506180923 | 17 | 226 | 1.6 | 6.4 | 0.00 | 0.00 | 0.00 | 99 | 1004.0 |
| 20260506180423 | -17 | 221 | 1.6 | 6.4 | 0.00 | 0.00 | 0.00 | 99 | 1004.0 |
| 20260506175923 | -17 | 231 | 1.6 | 4.8 | 0.00 | 0.00 | 0.00 | 99 | 1004.0 |
| 20260506175423 | 17 | 179 | 1.6 | 4.8 | 0.00 | 0.00 | 0.00 | 99 | 1004.0 |
| 20260506174923 | 17 | 219 | 3.2 | 8.0 | 0.00 | 0.00 | 0.00 | 99 | 1004.0 |
| 20260506174423 | 17 | 178 | 3.2 | 8.0 | 0.00 | 0.00 | 0.00 | 99 | 1004.0 |
| 20260506173923 | 17 | 267 | 3.2 | 8.0 | 0.00 | 0.00 | 0.00 | 99 | 1004.0 |
| 20260506173423 | 17 | 229 | 3.2 | 8.0 | 0.00 | 0.00 | 0.00 | 99 | 1004.0 |
| 20260506172923 | 17 | 221 | 3.2 | 12.9 | 0.00 | 0.00 | 0.00 | 99 | 1004.0 |
| 20260506171923 | -17 | 229 | 3.2 | 9.7 | 0.00 | 0.00 | 0.00 | 99 | 1004.0 |
| 20260506171423 | -17 | 234 | 3.2 | 9.7 | 0.00 | 0.00 | 0.00 | 99 | 1004.0 |
| 20260506170923 | -17 | 221 | 3.2 | 8.0 | 0.00 | 0.00 | 0.00 | 99 | 1004.0 |
| 20260506170423 | -17 | 223 | 1.6 | 6.4 | 0.00 | 0.00 | 0.00 | 99 | 1004.0 |
| 20260506165923 | -17 | 224 | 1.6 | 6.4 | 0.00 | 0.00 | 0.00 | 99 | 1004.0 |
| 20260506165423 | -17 | 228 | 0.0 | 0.0 | 0.00 | 0.00 | 0.00 | 99 | 1004.0 |
| 20260506164923 | -17 | 217 | 0.0 | 0.0 | 0.00 | 0.00 | 0.00 | 99 | 1004.0 |
| 20260506164423 | -17 | 221 | 0.0 | 0.0 | 0.00 | 0.00 | 0.00 | 99 | 1004.0 |
| 20260506163923 | -17 | 226 | 0.0 | 0.0 | 0.00 | 0.00 | 0.00 | 99 | 1004.0 |
| 20260506163423 | -17 | 224 | 0.0 | 0.0 | 0.00 | 0.00 | 0.00 | 99 | 1004.0 |
| 20260506162923 | -17 | 226 | 0.0 | 0.0 | 0.00 | 0.00 | 0.00 | 99 | 1004.1 |
| 20260506162423 | -17 | 204 | 0.0 | 0.0 | 0.00 | 0.00 | 0.00 | 99 | 1005.0 |
| 20260506161923 | -17 | 182 | 0.0 | 0.0 | 0.00 | 0.00 | 0.00 | 99 | 1005.0 |
| 20260506161423 | -17 | 175 | 0.0 | 0.0 | 0.00 | 0.00 | 0.00 | 99 | 1005.0 |
| 20260506160923 | -17 | 190 | 0.0 | 0.0 | 0.00 | 0.00 | 0.00 | 99 | 1004.2 |
| 20260506160423 | -17 | 239 | 0.0 | 0.0 | 0.00 | 0.00 | 0.00 | 99 | 1004.2 |
| 20260506155923 | -17 | 235 | 0.0 | 0.0 | 0.00 | 0.00 | 0.00 | 99 | 1005.0 |
| 20260506155423 | 15 | 220 | 0.0 | 0.0 | 0.00 | 0.00 | 0.00 | 99 | 1004.2 |
| 20260506154923 | 15 | 232 | 0.0 | 0.0 | 0.00 | 0.00 | 0.00 | 99 | 1005.0 |
| 20260506154423 | 15 | 324 | 0.0 | 0.0 | 0.00 | 0.00 | 0.00 | 99 | 1005.0 |
| 20260506153923 | 15 | 269 | 0.0 | 0.0 | 0.00 | 0.00 | 0.00 | 99 | 1005.0 |
| 20260506153423 | 15 | 265 | 0.0 | 0.0 | 0.00 | 0.00 | 0.00 | 99 | 1005.0 |
| 20260506152923 | 15 | 300 | 0.0 | 0.0 | 0.00 | 0.00 | 0.00 | 99 | 1005.0 |
| 20260506152423 | 15 | 279 | 0.0 | 0.0 | 0.00 | 0.00 | 0.00 | 99 | 1004.2 |
| 20260506151923 | 15 | 261 | 0.0 | 0.0 | 0.00 | 0.00 | 0.00 | 99 | 1005.0 |
| 20260506151422 | 15 | 273 | 0.0 | 0.0 | 0.00 | 0.00 | 0.00 | 99 | 1005.0 |
| 20260506150922 | 15 | 94 | 0.0 | 0.0 | 0.00 | 0.00 | 0.00 | 99 | 1005.0 |
| 20260506150422 | 14 | 60 | 0.0 | 0.0 | 0.00 | 0.00 | 0.00 | 99 | 1005.0 |
| 20260506145922 | 14 | 74 | 0.0 | 0.0 | 0.00 | 0.00 | 0.00 | 99 | 1005.0 |
| 20260506145422 | 14 | 160 | 0.0 | 0.0 | 0.00 | 0.00 | 0.00 | 99 | 1005.0 |
| 20260506144422 | 14 | 157 | 0.0 | 0.0 | 0.00 | 0.00 | 0.00 | 99 | 1005.0 |
| 20260506143922 | 14 | 41 | 0.0 | 0.0 | 0.00 | 0.00 | 0.00 | 99 | 1005.0 |
| 20260506143423 | 13 | 284 | 0.0 | 0.0 | 0.00 | 0.00 | 0.00 | 99 | 1005.0 |
| 20260506142922 | 13 | 334 | 0.0 | 0.0 | 0.00 | 0.00 | 0.00 | 99 | 1005.0 |
| 20260506142422 | 13 | 148 | 0.0 | 0.0 | 0.00 | 0.00 | 0.00 | 99 | 1005.0 |
| 20260506141922 | 13 | 94 | 0.0 | 0.0 | 0.00 | 0.00 | 0.00 | 99 | 1005.0 |
| 20260506141422 | 14 | 148 | 0.0 | 0.0 | 0.00 | 0.00 | 0.00 | 99 | 1005.0 |
| 20260506140922 | 14 | 131 | 0.0 | 0.0 | 0.00 | 0.00 | 0.00 | 99 | 1005.0 |
| 20260506140422 | 14 | 345 | 0.0 | 0.0 | 0.00 | 0.00 | 0.00 | 99 | 1005.2 |
| 20260506135922 | 14 | 340 | 0.0 | 0.0 | 0.00 | 0.00 | 0.00 | 99 | 1005.1 |
| 20260506135422 | 15 | 352 | 0.0 | 0.0 | 0.00 | 0.00 | 0.00 | 99 | 1005.0 |
| 20260506134922 | 15 | 245 | 0.0 | 0.0 | 0.00 | 0.00 | 0.00 | 99 | 1005.0 |
| 20260506134422 | 15 | 74 | 0.0 | 0.0 | 0.00 | 0.00 | 0.00 | 99 | 1005.0 |
| 20260506133922 | 16 | 67 | 0.0 | 0.0 | 0.00 | 0.00 | 0.00 | 99 | 1005.0 |
| 20260506133423 | 16 | 149 | 0.0 | 0.0 | 0.00 | 0.00 | 0.00 | 99 | 1005.0 |
| 20260506132922 | 16 | 150 | 0.0 | 0.0 | 0.00 | 0.00 | 0.00 | 99 | 1005.0 |
| 20260506132422 | 16 | 74 | 0.0 | 0.0 | 0.00 | 0.00 | 0.00 | 99 | 1005.0 |
| 20260506131922 | 16 | 91 | 0.0 | 0.0 | 0.00 | 0.00 | 0.00 | 99 | 1005.0 |
| 20260506131422 | 16 | 137 | 0.0 | 0.0 | 0.00 | 0.00 | 0.00 | 99 | 1005.0 |
| 20260506130922 | 16 | 107 | 0.0 | 0.0 | 0.00 | 0.00 | 0.00 | 99 | 1005.0 |
| 20260506130422 | 16 | 130 | 0.0 | 0.0 | 0.00 | 0.00 | 0.00 | 99 | 1005.0 |
| 20260506125922 | 15 | 338 | 0.0 | 0.0 | 0.00 | 0.00 | 0.00 | 99 | 1005.0 |
| 20260506125422 | 15 | 64 | 0.0 | 0.0 | 0.00 | 0.00 | 0.00 | 99 | 1005.0 |
| 20260506124922 | 14 | 254 | 0.0 | 0.0 | 0.00 | 0.00 | 0.00 | 99 | 1005.0 |
| 20260506124422 | 13 | 222 | 0.0 | 0.0 | 0.00 | 0.00 | 0.00 | 99 | 1005.0 |
| 20260506123922 | 13 | 160 | 0.0 | 0.0 | 0.00 | 0.00 | 0.00 | 99 | 1005.0 |
| 20260506123422 | 13 | 232 | 0.0 | 0.0 | 0.00 | 0.00 | 0.00 | 99 | 1005.0 |
| 20260506122922 | 13 | 59 | 0.0 | 0.0 | 0.00 | 0.00 | 0.00 | 99 | 1005.0 |
| 20260506122422 | 13 | 30 | 0.0 | 0.0 | 0.00 | 0.00 | 0.00 | 99 | 1005.1 |
| 20260506121922 | 13 | 349 | 0.0 | 0.0 | 0.00 | 0.00 | 0.00 | 99 | 1006.0 |
| 20260506121422 | 13 | 104 | 0.0 | 0.0 | 0.00 | 0.00 | 0.00 | 99 | 1005.2 |
| 20260506120923 | 12 | 78 | 0.0 | 0.0 | 0.00 | 0.00 | 0.00 | 99 | 1005.2 |
| 20260506120422 | 12 | 76 | 0.0 | 0.0 | 0.00 | 0.00 | 0.00 | 99 | 1006.0 |
| 20260506115922 | 12 | 88 | 0.0 | 0.0 | 0.00 | 0.00 | 0.00 | 99 | 1005.2 |
| 20260506115422 | 12 | 102 | 0.0 | 0.0 | 0.00 | 0.00 | 0.00 | 99 | 1006.0 |
| 20260506114922 | 12 | 94 | 0.0 | 0.0 | 0.00 | 0.00 | 0.00 | 99 | 1006.0 |
| 20260506114422 | 12 | 90 | 0.0 | 0.0 | 0.00 | 0.00 | 0.00 | 99 | 1005.2 |
| 20260506113922 | 12 | 123 | 0.0 | 0.0 | 0.00 | 0.00 | 0.00 | 99 | 1005.1 |
| 20260506113422 | 12 | 129 | 0.0 | 0.0 | 0.00 | 0.00 | 0.00 | 99 | 1005.1 |
| 20260506112922 | 12 | 131 | 0.0 | 0.0 | 0.00 | 0.00 | 0.00 | 99 | 1005.1 |
| 20260506112422 | 12 | 290 | 0.0 | 0.0 | 0.00 | 0.00 | 0.00 | 99 | 1005.1 |
| 20260506111922 | 12 | 288 | 0.0 | 0.0 | 0.00 | 0.00 | 0.00 | 99 | 1005.0 |
| 20260506111422 | 12 | 135 | 0.0 | 0.0 | 0.00 | 0.00 | 0.00 | 99 | 1005.0 |
| 20260506110922 | 12 | 180 | 0.0 | 0.0 | 0.00 | 0.00 | 0.00 | 99 | 1005.0 |
| 20260506110422 | 11 | 175 | 0.0 | 0.0 | 0.00 | 0.00 | 0.00 | 99 | 1005.0 |
| 20260506105422 | 11 | 139 | 0.0 | 0.0 | 0.00 | 0.00 | 0.00 | 99 | 1005.2 |
| 20260506104922 | 11 | 301 | 0.0 | 0.0 | 0.00 | 0.00 | 0.00 | 99 | 1005.1 |
| 20260506103922 | 11 | 123 | 0.0 | 0.0 | 0.00 | 0.00 | 0.00 | 99 | 1005.0 |
| 20260506103422 | 11 | 183 | 0.0 | 0.0 | 0.00 | 0.00 | 0.00 | 99 | 1005.0 |
| 20260506102922 | 11 | 103 | 0.0 | 0.0 | 0.00 | 0.00 | 0.00 | 99 | 1005.0 |
| 20260506102422 | 11 | 133 | 0.0 | 0.0 | 0.00 | 0.00 | 0.00 | 99 | 1005.0 |
| 20260506101922 | 11 | 191 | 0.0 | 0.0 | 0.00 | 0.00 | 0.00 | 99 | 1005.0 |
| 20260506101422 | 11 | 142 | 0.0 | 0.0 | 0.00 | 0.00 | 0.00 | 99 | 1005.0 |
| 20260506100922 | 11 | 171 | 0.0 | 0.0 | 0.00 | 0.00 | 0.00 | 99 | 1005.0 |
| 20260506100422 | 10 | 104 | 0.0 | 0.0 | 0.00 | 0.00 | 0.00 | 99 | 1005.0 |
| 20260506095922 | 10 | 157 | 0.0 | 0.0 | 0.00 | 0.00 | 0.00 | 99 | 1005.0 |
| 20260506095422 | 10 | 135 | 0.0 | 0.0 | 0.00 | 0.00 | 0.00 | 99 | 1005.0 |
| 20260506094922 | 10 | 147 | 0.0 | 0.0 | 0.00 | 0.00 | 0.00 | 99 | 1005.0 |
| 20260506094422 | 10 | 146 | 0.0 | 0.0 | 0.00 | 0.00 | 0.00 | 99 | 1005.0 |
| 20260506093922 | 10 | 211 | 0.0 | 0.0 | 0.00 | 0.00 | 0.00 | 99 | 1005.0 |
| 20260506093422 | 10 | 184 | 0.0 | 0.0 | 0.00 | 0.00 | 0.00 | 99 | 1005.0 |
| 20260506092922 | 10 | 186 | 0.0 | 0.0 | 0.00 | 0.00 | 0.00 | 99 | 1005.0 |
| 20260506092422 | 10 | 180 | 0.0 | 0.0 | 0.00 | 0.00 | 0.00 | 99 | 1005.0 |
| 20260506091922 | 10 | 180 | 0.0 | 0.0 | 0.00 | 0.00 | 0.00 | 99 | 1005.0 |
| 20260506091422 | 10 | 180 | 0.0 | 0.0 | 0.00 | 0.00 | 0.00 | 99 | 1005.0 |
| 20260506090922 | 10 | 180 | 0.0 | 0.0 | 0.00 | 0.00 | 0.00 | 99 | 1005.0 |
| 20260506090422 | 10 | 152 | 0.0 | 0.0 | 0.00 | 0.00 | 0.00 | 99 | 1005.0 |
| 20260506085922 | 10 | 161 | 0.0 | 0.0 | 0.00 | 0.00 | 0.00 | 99 | 1005.0 |
| 20260506085422 | 10 | 125 | 0.0 | 0.0 | 0.00 | 0.00 | 0.00 | 99 | 1005.0 |
| 20260506084922 | 10 | 135 | 0.0 | 0.0 | 0.00 | 0.00 | 0.00 | 99 | 1005.0 |
| 20260506084422 | 10 | 151 | 0.0 | 0.0 | 0.00 | 0.00 | 0.00 | 99 | 1005.1 |
| 20260506083922 | 10 | 180 | 0.0 | 0.0 | 0.00 | 0.00 | 0.00 | 99 | 1006.0 |
| 20260506083422 | 11 | 177 | 0.0 | 0.0 | 0.00 | 0.00 | 0.00 | 99 | 1006.0 |
| 20260506082922 | 11 | 157 | 0.0 | 0.0 | 0.00 | 0.00 | 0.00 | 99 | 1006.0 |
| 20260506082422 | 11 | 157 | 0.0 | 0.0 | 0.00 | 0.00 | 0.00 | 99 | 1006.0 |
| 20260506081922 | 11 | 178 | 0.0 | 0.0 | 0.00 | 0.00 | 0.00 | 99 | 1006.0 |
| 20260506081422 | 11 | 180 | 0.0 | 0.0 | 0.00 | 0.00 | 0.00 | 99 | 1006.0 |
| 20260506080922 | 11 | 164 | 0.0 | 0.0 | 0.00 | 0.00 | 0.00 | 99 | 1006.0 |
| 20260506080422 | 11 | 135 | 0.0 | 0.0 | 0.00 | 0.00 | 0.00 | 99 | 1005.2 |
| 20260506073422 | 12 | 135 | 0.0 | 0.0 | 0.00 | 0.00 | 0.00 | 99 | 1006.0 |
| 20260506072922 | 12 | 135 | 0.0 | 0.0 | 0.00 | 0.00 | 0.00 | 99 | 1006.0 |
| 20260506072422 | 12 | 135 | 0.0 | 0.0 | 0.00 | 0.00 | 0.00 | 99 | 1006.0 |
| 20260506071922 | 12 | 168 | 0.0 | 0.0 | 0.00 | 0.00 | 0.00 | 99 | 1006.0 |
| 20260506071422 | 12 | 128 | 0.0 | 0.0 | 0.00 | 0.00 | 0.00 | 99 | 1006.0 |
| 20260506070922 | 12 | 147 | 0.0 | 0.0 | 0.00 | 0.00 | 0.00 | 99 | 1006.0 |
| 20260506070422 | 12 | 150 | 0.0 | 0.0 | 0.00 | 0.00 | 0.00 | 99 | 1006.0 |
| 20260506062422 | 12 | 137 | 0.0 | 0.0 | 0.00 | 0.00 | 0.00 | 99 | 1006.0 |
| 20260506061922 | 13 | 172 | 0.0 | 0.0 | 0.00 | 0.00 | 0.00 | 99 | 1006.0 |
| 20260506061422 | 13 | 257 | 0.0 | 0.0 | 0.00 | 0.00 | 0.00 | 99 | 1006.0 |
| 20260506060922 | 13 | 270 | 0.0 | 0.0 | 0.00 | 0.00 | 0.00 | 99 | 1006.0 |
| 20260506060422 | 13 | 270 | 0.0 | 0.0 | 0.00 | 0.00 | 0.00 | 99 | 1006.0 |
| 20260506050922 | 13 | 112 | 0.0 | 0.0 | 0.00 | 0.00 | 0.00 | 99 | 1006.0 |
| 20260506050422 | 13 | 178 | 0.0 | 0.0 | 0.00 | 0.00 | 0.00 | 99 | 1006.0 |
| 20260506044922 | 13 | 140 | 0.0 | 0.0 | 0.00 | 0.00 | 0.00 | 99 | 1006.0 |